SB KEPS @ AMSAT $ORB07221.O Orbital Elements 07221.OSCAR
HR AMSAT ORBITAL ELEMENTS FOR OSCAR SATELLITES FROM WA5QGD FORT WORTH,TX August 9, 2007 Send Subscribe/unsubscribe to KEPS at http://www.amsat.org/mailman/listinfo/keps BID: ORB07221.O TO ALL RADIO AMATEURS BT
Satellite: AO-07 Catalog number: 07530 Epoch time: 07220.65418642 Element set: 0947 Inclination: 101.5114 deg RA of node: 257.1125 deg Eccentricity: 0.0011877 Arg of perigee: 152.2276 deg Mean anomaly: 207.9427 deg Mean motion: 12.53572501 rev/day Decay rate: -2.8e-07 rev/day^2 Epoch rev: 49769 Checksum: 293
Satellite: AO-10 Catalog number: 14129 Epoch time: 07221.48441457 Element set: 409 Inclination: 026.2637 deg RA of node: 262.5698 deg Eccentricity: 0.6065792 Arg of perigee: 045.9912 deg Mean anomaly: 350.3017 deg Mean motion: 02.05870181 rev/day Decay rate: -2.97e-06 rev/day^2 Epoch rev: 18166 Checksum: 311
Satellite: UO-11 Catalog number: 14781 Epoch time: 07221.21119050 Element set: 440 Inclination: 098.1891 deg RA of node: 244.9294 deg Eccentricity: 0.0009241 Arg of perigee: 008.4848 deg Mean anomaly: 351.6513 deg Mean motion: 14.79569751 rev/day Decay rate: -2.37e-06 rev/day^2 Epoch rev: 25757 Checksum: 307
Satellite: RS-15 Catalog number: 23439 Epoch time: 07220.66571866 Element set: 0069 Inclination: 064.8194 deg RA of node: 282.0534 deg Eccentricity: 0.0157878 Arg of perigee: 181.3604 deg Mean anomaly: 178.6910 deg Mean motion: 11.27552384 rev/day Decay rate: -3.9e-07 rev/day^2 Epoch rev: 51961 Checksum: 329
Satellite: FO-29 Catalog number: 24278 Epoch time: 07221.81895216 Element set: 562 Inclination: 098.5559 deg RA of node: 174.2718 deg Eccentricity: 0.0350246 Arg of perigee: 304.5052 deg Mean anomaly: 052.3476 deg Mean motion: 13.52931720 rev/day Decay rate: 8.0e-07 rev/day^2 Epoch rev: 54215 Checksum: 305
Satellite: SO-33 Catalog number: 25509 Epoch time: 07221.52928278 Element set: 991 Inclination: 031.4315 deg RA of node: 284.1587 deg Eccentricity: 0.0355059 Arg of perigee: 173.7055 deg Mean anomaly: 186.8155 deg Mean motion: 14.28171957 rev/day Decay rate: 1.39e-06 rev/day^2 Epoch rev: 45888 Checksum: 343
Satellite: AO-40 Catalog number: 26609 Epoch time: 07220.88906645 Element set: 916 Inclination: 006.1506 deg RA of node: 127.8420 deg Eccentricity: 0.7972631 Arg of perigee: 350.4087 deg Mean anomaly: 000.7343 deg Mean motion: 01.25588754 rev/day Decay rate: 5.0e-08 rev/day^2 Epoch rev: 3110 Checksum: 288
Satellite: VO-52 Catalog number: 28650 Epoch time: 07221.33692950 Element set: 697 Inclination: 097.8292 deg RA of node: 290.8582 deg Eccentricity: 0.0028471 Arg of perigee: 081.2241 deg Mean anomaly: 279.2185 deg Mean motion: 14.81343468 rev/day Decay rate: -2.16e-06 rev/day^2 Epoch rev: 12228 Checksum: 321
Satellite: PO-63 Catalog number: 29712 Epoch time: 07221.73211283 Element set: 622 Inclination: 097.9186 deg RA of node: 280.1425 deg Eccentricity: 0.0013420 Arg of perigee: 320.8064 deg Mean anomaly: 039.2180 deg Mean motion: 14.79785515 rev/day Decay rate: 4.37e-06 rev/day^2 Epoch rev: 3125 Checksum: 284
/EX SB KEPS @ AMSAT $ORB07221.D Orbital Elements 07221.MICROS
HR AMSAT ORBITAL ELEMENTS FOR THE MICROSATS FROM WA5QGD FORT WORTH,TX August 9, 2007 Send Subscribe/unsubscribe to KEPS at http://www.amsat.org/mailman/listinfo/keps BID: ORB07221.D TO ALL RADIO AMATEURS BT
Satellite: AO-16 Catalog number: 20439 Epoch time: 07220.92312797 Element set: 0101 Inclination: 098.1985 deg RA of node: 212.5796 deg Eccentricity: 0.0011910 Arg of perigee: 032.9540 deg Mean anomaly: 327.2386 deg Mean motion: 14.31766826 rev/day Decay rate: -9.0e-08 rev/day^2 Epoch rev: 91609 Checksum: 307
Satellite: LO-19 Catalog number: 20442 Epoch time: 07220.53352120 Element set: 0027 Inclination: 098.1823 deg RA of node: 221.4880 deg Eccentricity: 0.0012888 Arg of perigee: 032.9452 deg Mean anomaly: 327.2528 deg Mean motion: 14.32007112 rev/day Decay rate: 7.0e-08 rev/day^2 Epoch rev: 91618 Checksum: 265
Satellite: AO-27 Catalog number: 22825 Epoch time: 07220.91473708 Element set: 0751 Inclination: 098.3349 deg RA of node: 188.5081 deg Eccentricity: 0.0009340 Arg of perigee: 103.8216 deg Mean anomaly: 256.4001 deg Mean motion: 14.29215229 rev/day Decay rate: 1.22e-06 rev/day^2 Epoch rev: 72302 Checksum: 279
Satellite: IO-26 Catalog number: 22826 Epoch time: 07220.53300341 Element set: 0449 Inclination: 098.3279 deg RA of node: 189.1914 deg Eccentricity: 0.0009749 Arg of perigee: 100.2636 deg Mean anomaly: 259.9646 deg Mean motion: 14.29461127 rev/day Decay rate: 5.0e-08 rev/day^2 Epoch rev: 72305 Checksum: 305
Satellite: PO-28 Catalog number: 22829 Epoch time: 07220.88316666 Element set: 0726 Inclination: 098.3166 deg RA of node: 190.6851 deg Eccentricity: 0.0010804 Arg of perigee: 076.8855 deg Mean anomaly: 283.3543 deg Mean motion: 14.30161980 rev/day Decay rate: -7.3e-07 rev/day^2 Epoch rev: 72334 Checksum: 320
Satellite: GO-32 Catalog number: 25397 Epoch time: 07220.89101431 Element set: 0371 Inclination: 098.4108 deg RA of node: 265.7882 deg Eccentricity: 0.0002207 Arg of perigee: 082.7869 deg Mean anomaly: 277.3579 deg Mean motion: 14.23128786 rev/day Decay rate: -4.5e-07 rev/day^2 Epoch rev: 47165 Checksum: 325
Satellite: MO-46 Catalog number: 26548 Epoch time: 07220.91216694 Element set: 0866 Inclination: 064.5571 deg RA of node: 019.5501 deg Eccentricity: 0.0008981 Arg of perigee: 191.4033 deg Mean anomaly: 168.6889 deg Mean motion: 14.83164188 rev/day Decay rate: 3.8e-07 rev/day^2 Epoch rev: 37136 Checksum: 332
Satellite: NO-44 Catalog number: 26931 Epoch time: 07220.49281398 Element set: 0654 Inclination: 067.0524 deg RA of node: 012.7503 deg Eccentricity: 0.0007251 Arg of perigee: 259.9811 deg Mean anomaly: 100.0436 deg Mean motion: 14.29493219 rev/day Decay rate: 1.88e-06 rev/day^2 Epoch rev: 30557 Checksum: 296
Satellite: SO-50 Catalog number: 27607 Epoch time: 07221.41328846 Element set: 378 Inclination: 064.5595 deg RA of node: 283.4299 deg Eccentricity: 0.0060536 Arg of perigee: 345.8220 deg Mean anomaly: 014.1147 deg Mean motion: 14.71276480 rev/day Decay rate: -1.38e-06 rev/day^2 Epoch rev: 24895 Checksum: 317
Satellite: CO-55 Catalog number: 27844 Epoch time: 07220.50902202 Element set: 0092 Inclination: 098.7187 deg RA of node: 228.0942 deg Eccentricity: 0.0009159 Arg of perigee: 306.5945 deg Mean anomaly: 053.4396 deg Mean motion: 14.20524852 rev/day Decay rate: 1.1e-07 rev/day^2 Epoch rev: 21290 Checksum: 290
Satellite: CO-57 Catalog number: 27848 Epoch time: 07220.53629442 Element set: 0051 Inclination: 098.7180 deg RA of node: 227.2977 deg Eccentricity: 0.0009436 Arg of perigee: 309.8082 deg Mean anomaly: 050.2265 deg Mean motion: 14.20342730 rev/day Decay rate: 3.1e-07 rev/day^2 Epoch rev: 21288 Checksum: 296
Satellite: AO-51 Catalog number: 28375 Epoch time: 07221.14749546 Element set: 882 Inclination: 098.1089 deg RA of node: 257.7272 deg Eccentricity: 0.0085200 Arg of perigee: 022.3555 deg Mean anomaly: 338.1309 deg Mean motion: 14.40576092 rev/day Decay rate: -3.0e-08 rev/day^2 Epoch rev: 16333 Checksum: 302
Satellite: CO-56 Catalog number: 28941 Epoch time: 07220.92995385 Element set: 0535 Inclination: 098.1249 deg RA of node: 287.9594 deg Eccentricity: 0.0219965 Arg of perigee: 086.1457 deg Mean anomaly: 276.4909 deg Mean motion: 15.41856095 rev/day Decay rate: 2.6656e-04 rev/day^2 Epoch rev: 08155 Checksum: 382
Satellite: HO-59 Catalog number: 29484 Epoch time: 07221.46108306 Element set: 575 Inclination: 098.2807 deg RA of node: 279.4558 deg Eccentricity: 0.0194697 Arg of perigee: 074.7139 deg Mean anomaly: 287.5437 deg Mean motion: 15.55125589 rev/day Decay rate: 4.5886e-04 rev/day^2 Epoch rev: 4934 Checksum: 380
Satellite: NO-60 Catalog number: 29661 Epoch time: 07150.05824307 Element set: 300 Inclination: 051.6186 deg RA of node: 176.5045 deg Eccentricity: 0.0007204 Arg of perigee: 190.7749 deg Mean anomaly: 188.7342 deg Mean motion: 16.52052832 rev/day Decay rate: 1.3324117e-01 rev/day^2 Epoch rev: 2554 Checksum: 290
Satellite: NO-61 Catalog number: 29664 Epoch time: 07221.73616812 Element set: 371 Inclination: 051.6285 deg RA of node: 169.4369 deg Eccentricity: 0.0009959 Arg of perigee: 183.8660 deg Mean anomaly: 176.2198 deg Mean motion: 15.95136978 rev/day Decay rate: 4.0476e-04 rev/day^2 Epoch rev: 3669 Checksum: 361
Satellite: CP4 Catalog number: 31122 Epoch time: 07220.65870266 Element set: 104 Inclination: 098.0825 deg RA of node: 292.2341 deg Eccentricity: 0.0085068 Arg of perigee: 221.9933 deg Mean anomaly: 137.4709 deg Mean motion: 14.55024798 rev/day Decay rate: 5.96e-06 rev/day^2 Epoch rev: 1648 Checksum: 304
Satellite: CP3 Catalog number: 31128 Epoch time: 07220.69905951 Element set: 98 Inclination: 098.0818 deg RA of node: 291.7110 deg Eccentricity: 0.0102202 Arg of perigee: 223.0485 deg Mean anomaly: 136.2685 deg Mean motion: 14.51853842 rev/day Decay rate: -4.8e-07 rev/day^2 Epoch rev: 1644 Checksum: 286
Satellite: LIBERT Catalog number: 31129 Epoch time: 07221.65709792 Element set: 284 Inclination: 098.0789 deg RA of node: 292.6402 deg Eccentricity: 0.0101394 Arg of perigee: 220.5942 deg Mean anomaly: 138.7631 deg Mean motion: 14.51947741 rev/day Decay rate: 3.83e-06 rev/day^2 Epoch rev: 1656 Checksum: 308
/EX SB KEPS @ AMSAT $ORB07221.W Orbital Elements 07221.WEATHER
HR AMSAT ORBITAL ELEMENTS FOR WEATHER SATELLITES FROM WA5QGD FORT WORTH,TX August 9, 2007 Send Subscribe/unsubscribe to KEPS at http://www.amsat.org/mailman/listinfo/keps BID: ORB07221.W TO ALL RADIO AMATEURS BT
Satellite: NOAA-10 Catalog number: 16969 Epoch time: 07220.59819599 Element set: 0761 Inclination: 098.7455 deg RA of node: 237.8092 deg Eccentricity: 0.0012899 Arg of perigee: 018.9323 deg Mean anomaly: 341.2337 deg Mean motion: 14.27330337 rev/day Decay rate: -8.8e-07 rev/day^2 Epoch rev: 08670 Checksum: 341
